This is the latest recevied weather packets stored in our database for station/object ON7XX-13. If no packets are shown the sender has not sent any weather packets the latest 10 day(s).
| Time | Temp. | Humidity | Pressure | Rain* | Wind** | Luminosity | Snow |
|---|---|---|---|---|---|---|---|
| 1777151947 | 11.11° C | 49% | 1023.5 hPa | - | - | - | - |
| 1777151333 | 11.11° C | 48% | 1023.4 hPa | - | - | - | - |
| 1777150719 | 11.67° C | 47% | 1023.4 hPa | - | - | - | - |
| 1777150104 | 11.67° C | 47% | 1023.4 hPa | - | - | - | - |
| 1777149491 | 12.22° C | 46% | 1023.4 hPa | - | - | - | - |
| 1777148876 | 12.22° C | 45% | 1023.3 hPa | - | - | - | - |
| 1777148262 | 12.78° C | 45% | 1023.2 hPa | - | - | - | - |
| 1777147647 | 13.33° C | 44% | 1023.1 hPa | - | - | - | - |
| 1777147033 | 13.33° C | 43% | 1023 hPa | - | - | - | - |
| 1777146419 | 13.89° C | 43% | 1023 hPa | - | - | - | - |
| 1777145805 | 14.44° C | 42% | 1022.8 hPa | - | - | - | - |
| 1777145191 | 14.44° C | 41% | 1022.6 hPa | - | - | - | - |
| 1777144577 | 15° C | 40% | 1022.5 hPa | - | - | - | - |
| 1777143962 | 15.56° C | 39% | 1022.4 hPa | - | - | - | - |
| 1777143348 | 16.11° C | 38% | 1022.2 hPa | - | - | - | - |
| 1777142734 | 16.11° C | 37% | 1022.1 hPa | - | - | - | - |
| 1777142119 | 16.67° C | 36% | 1022 hPa | - | - | - | - |
| 1777141505 | 17.22° C | 35% | 1022 hPa | - | - | - | - |
| 1777140891 | 17.78° C | 34% | 1022.1 hPa | - | - | - | - |
| 1777140276 | 18.33° C | 34% | 1022 hPa | - | - | - | - |
| 1777139662 | 18.89° C | 33% | 1021.9 hPa | - | - | - | - |
| 1777139048 | 19.44° C | 33% | 1021.9 hPa | - | - | - | - |
| 1777138434 | 20° C | 33% | 1021.8 hPa | - | - | - | - |
| 1777137819 | 20.56° C | 33% | 1021.8 hPa | - | - | - | - |
| 1777137205 | 21.11° C | 32% | 1021.7 hPa | - | - | - | - |
* Rain since midnight (hover to see other rain measurements)
** Current wind speed in m/s (hover to see current wind gust speed)